• Processing (Info)

  • MPEC 2006-B72 : 2006 BG55

    The following Minor Planet Electronic Circular may be linked-to from your own Web pages, but must not otherwise be redistributed electronically.

    A form allowing access to any MPEC is at the bottom of this page.


    Read MPEC 2006-B71 Read MPEC 2006-B73


    M.P.E.C. 2006-B72                                Issued 2006 Jan. 28, 18:23 UT
    
         The Minor Planet Electronic Circulars contain information on unusual
             minor planets and routine data on comets.  They are published
       on behalf of Commission 20 of the International Astronomical Union by the
              Minor Planet Center, Smithsonian Astrophysical Observatory,
                              Cambridge, MA 02138, U.S.A.
    
                      Supported in part by the Brinson Foundation
                      Supported in part by the TABASGO Foundation
                 Prepared using the Tamkin Foundation Computer Network
    
                                  MPC@CFA.HARVARD.EDU
              URL http://cfa-www.harvard.edu/iau/mpc.html  ISSN 1523-6714
    
                                       2006 BG55
    
    Observations:
         K06B55G* C2006 01 26.39286 10 43 25.46 +09 38 01.7          21.6 V EB072G96
         K06B55G  C2006 01 26.40101 10 43 24.92 +09 38 07.5          21.6 V EB072G96
         K06B55G  C2006 01 26.40905 10 43 24.45 +09 38 13.1          21.3 V EB072G96
         K06B55G  C2006 01 26.41701 10 43 23.98 +09 38 17.7          21.1 V EB072G96
         K06B55G  C2006 01 26.45249 10 43 21.75 +09 38 42.6          21.0 V EB072G96
         K06B55G  C2006 01 26.46025 10 43 21.28 +09 38 47.0          21.7 V EB072G96
         K06B55G  C2006 01 26.46806 10 43 20.74 +09 38 52.7          20.6 V EB072G96
         K06B55G  C2006 01 27.29410 10 42 31.26 +09 48 10.0                 EB072291
         K06B55G  C2006 01 27.29806 10 42 31.01 +09 48 12.9                 EB072291
         K06B55G  C2006 01 27.30209 10 42 30.72 +09 48 15.8                 EB072291
         K06B55G  C2006 01 27.33222 10 42 28.83 +09 48 35.9          20.7 V EB072G96
         K06B55G  C2006 01 27.33807 10 42 28.40 +09 48 40.1          21.4 V EB072G96
         K06B55G  C2006 01 27.34396 10 42 28.08 +09 48 43.9          21.7 V EB072G96
         K06B55G  C2006 01 27.34983 10 42 27.68 +09 48 47.7          21.6 V EB072G96
         K06B55G  C2006 01 27.43957 10 42 21.89 +09 49 49.2          20.3 V EB072G96
         K06B55G  C2006 01 27.44045 10 42 21.87 +09 49 49.5          20.4 V EB072G96
         K06B55G  C2006 01 27.44134 10 42 21.84 +09 49 49.8          20.1 V EB072G96
         K06B55G  C2006 01 27.44222 10 42 21.81 +09 49 50.0          19.8 V EB072G96
         K06B55G  C2006 01 28.36463 10 41 23.82 +10 00 30.0          21.0 V EB072G96
         K06B55G  C2006 01 28.37050 10 41 23.49 +10 00 34.0          21.6 V EB072G96
         K06B55G  C2006 01 28.37640 10 41 23.06 +10 00 38.6          20.7 V EB072G96
         K06B55G  C2006 01 28.38229 10 41 22.70 +10 00 42.6          20.9 V EB072G96
    
    Observer details:
    291 LPL/Spacewatch II.  Observer A. S. Descour.  1.8-m f/2.7 reflector + CCD.
    G96 Mt. Lemmon Survey.  Observers S. M. Larson, E. J. Christensen.  Measurers
        E. C. Beshore, E. J. Christensen, G. J. Garradd, A. D. Grauer, R. E. Hill,
        R. A. Kowalski, S. M. Larson, R. H. McNaught.  1.5-m reflector + CCD.
    
    Orbital elements:
    2006 BG55                                                Earth MOID = 0.2134 AU
    Epoch 2006 Mar. 6.0 TT = JDT 2453800.5                  MPC
    M 248.92200              (2000.0)            P               Q
    n   0.55118438     Peri.  168.40026     +0.64067685     +0.75522695
    a   1.4732330      Node   141.21005     -0.72094672     +0.65374066
    e   0.5981150      Incl.   12.76684     -0.26413823     +0.04749117
    P   1.79           H   17.9           G   0.15           U   9
    Residuals in seconds of arc
    060126 G96  0.4+  0.4-    060127 291  0.3+  0.5+    060127 G96  0.2+  0.6-
    060126 G96  0.2-  0.1-    060127 291  0.2-  0.7+    060127 G96  0.6+  1.0-
    060126 G96  0.2+  0.2+    060127 G96  0.2+  0.2+    060128 G96  0.5-  0.0
    060126 G96  0.5+  0.5-    060127 G96  0.6-  0.4+    060128 G96  0.4+  0.1-
    060126 G96  0.1-  0.7+    060127 G96  0.2+  0.1+    060128 G96  0.1-  0.3+
    060126 G96  0.0   0.0     060127 G96  0.2-  0.1-    060128 G96  0.3+  0.2+
    060126 G96  0.8-  0.5+    060127 G96  0.7-  0.0
    060127 291  0.3+  0.4+    060127 G96  0.2-  0.3-
    
    Ephemeris:
    2006 BG55                a,e,i = 1.47, 0.60, 13                  q = 0.5921
    Date    TT    R. A. (2000) Decl.     Delta      r     Elong.  Phase     V
    2006 01 25    10 44.76   +09 22.9    1.355    2.238   145.7    14.4    21.1
    2006 02 04    10 33.43   +11 23.9    1.259    2.208   159.1     9.2    20.7
    2006 02 14    10 18.48   +13 47.0    1.192    2.175   172.9     3.2    20.3
    2006 02 24    10 01.14   +16 17.9    1.156    2.139   170.7     4.3    20.2
    2006 03 06    09 43.40   +18 39.4    1.152    2.099   156.2    11.0    20.5
    2006 03 16    09 27.49   +20 36.9    1.177    2.055   142.2    17.3    20.7
    2006 03 26    09 15.12   +22 04.0    1.223    2.007   129.1    22.7    20.9
    2006 04 05    09 07.21   +23 01.0    1.284    1.956   117.3    27.0    21.1
    2006 04 15    09 03.93   +23 31.8    1.352    1.901   106.7    30.4    21.3
    2006 04 25    09 04.93   +23 41.1    1.422    1.841    97.1    32.8    21.4
    2006 05 05    09 09.73   +23 32.1    1.489    1.777    88.6    34.6    21.4
    2006 05 15    09 17.77   +23 07.5    1.548    1.709    80.9    35.7    21.5
    2006 05 25    09 28.56   +22 28.6    1.597    1.636    73.9    36.5    21.5
    2006 06 04    09 41.74   +21 35.9    1.633    1.559    67.6    37.0    21.4
    2006 06 14    09 57.02   +20 29.4    1.654    1.477    61.8    37.3    21.3
    
    Kyle E. Smalley              (C) Copyright 2006 MPC           M.P.E.C. 2006-B72
    

    Read MPEC 2006-B71 Read MPEC 2006-B73


    MPEC number:

    Enter an MPEC number in one of the following forms:

    • 1997-B01 (the full form)
    • J97B01 (the packed version of the full form)
    • B01 (the abbreviated form)